This demonstration page uses our WeatherBlox Daily Observations layout. Learn more.

Left ArrowRight Arrow

Hourly Observations for January 26, 2019

Temp ( °F °C ) Dew Point ( °F °C ) Humidity (%) Winds ( mph kmh ) Pressure ( in mb ) Visibility ( mi km ) Precip ( " mm )
12:51 am 00:51 Clear 36 2.2 21 -6.1 55 55 S 6 9 30.07 1018 10 16 N/A
1:51 am 01:51 Clear 32 undefined 20 -6.7 61 61 E 6 9 30.08 1019 10 16 N/A
2:51 am 02:51 Clear 35 1.7 20 -6.7 54 54 NNE 9 15 30.09 1019 10 16 N/A
3:51 am 03:51 Clear 32 undefined 20 -6.7 61 61 N N/A 30.10 1019 10 16 N/A
4:51 am 04:51 Clear 30 -1.1 19 -7.2 64 64 N N/A 30.11 1020 10 16 N/A
5:51 am 05:51 Clear 29 -1.7 19 -7.2 66 66 N N/A 30.13 1020 10 16 N/A
6:51 am 06:51 Clear 27 -2.8 18 -7.8 69 69 N N/A 30.18 1022 10 16 N/A
7:51 am 07:51 Sunny 30 -1.1 19 -7.2 64 64 ENE 3 6 30.20 1023 10 16 N/A
8:51 am 08:51 Sunny 39 3.9 20 -6.7 46 46 ESE 6 9 30.21 1023 10 16 N/A
9:51 am 09:51 Sunny 44 6.7 21 -6.1 40 40 SSW 5 7 30.23 1024 10 16 N/A
10:51 am 10:51 Sunny 50 10 18 -7.8 28 28 WNW 5 7 30.21 1023 10 16 N/A
11:51 am 11:51 Sunny 55 12.8 16 -8.9 21 21 W 5 7 30.19 1022 10 16 N/A
12:51 pm 12:51 Sunny 59 15 15 -9.4 18 18 WNW 9 15 30.16 1022 10 16 N/A
1:51 pm 13:51 Sunny 61 16.1 12 -11.1 14 14 NW 9 15 30.13 1020 10 16 N/A
2:51 pm 14:51 Sunny 62 16.7 8 -13.3 12 12 WNW 12 19 30.11 1020 10 16 N/A
3:51 pm 15:51 Sunny 63 17.2 7 -13.9 11 11 WNW 15 24 30.11 1020 10 16 N/A
4:51 pm 16:51 Sunny 62 16.7 9 -12.8 12 12 WNW 13 20 30.11 1020 10 16 N/A
5:51 pm 17:51 Clear 55 12.8 12 -11.1 18 18 WNW 9 15 30.11 1020 10 16 N/A
6:51 pm 18:51 Clear 50 10 15 -9.4 25 25 WNW 3 6 30.14 1021 10 16 N/A
7:51 pm 19:51 Clear 46 7.8 16 -8.9 30 30 NNW 5 7 30.17 1022 10 16 N/A
8:51 pm 20:51 Clear 42 5.6 16 -8.9 35 35 VRB 5 7 30.19 1022 10 16 N/A
9:51 pm 21:51 Clear 40 4.4 17 -8.3 40 40 E 6 9 30.22 1023 10 16 N/A
10:51 pm 22:51 Clear 38 3.3 17 -8.3 43 43 N 9 15 30.21 1023 10 16 N/A
11:51 pm 23:51 Clear 38 3.3 17 -8.3 43 43 ESE 6 9 30.22 1023 10 16 N/A

Powered by AerisWeather